Location: Fours
(44.3167°N, 6.7000°E)
Time: 08:53:04
(UTC+00:00)

SL-23 DEB - Pass Details

Date: 30 November 2020
Orbit: 425 x 3627 km, 51.4° (Epoch: 26 January)

Event Time Altitude Azimuth Distance (km) Brightness Sun altitude
Rises 17:18:33 0° 235° (SW) 2,453 8.6 -14.4°
Reaches altitude 10° 17:20:19 10° 234° (SW) 1,685 7.5 -14.7°
Maximum altitude 17:23:53 82° 146° (SSE) 637 4.0 -15.3°
Enters shadow 17:26:57 24° 62° (ENE) 1,572 5.5 -15.9°
